Погода в Николаевке

Украина / Николаевская область     47°22′18″N   31°15′28″E
темп.,
°C
ветер,
м/с
пор.,
м/с
влажн.,
%
обл.,
%
осадки,
мм/ч
давл.,
гПа
погр.,
м
23 апреля, пт
пт2300:00+9ю6138131 0.0 1019283
03:00+9ю6138096 0.0 1018307
06:00+8ю5119199 0.1 1017247
09:00+13ююз6974100 0.1 1017520
12:00+14юз6767100 0.7 1017995
15:00+15з7863100 1.7 10171113
18:00+8ссз8985100 2.8 1019753
21:00+6с2588100 3.4 1020264
24 апреля, сб
сб2400:00+5зсз23920 0.0 102057
03:00+5зсз49875 0.0 1020200
06:00+3сз36850 0.0 1021107
09:00+8зсз46570 0.0 1022559
12:00+12зсз81139100 0.0 10212610
15:00+13зсз10123595 0.0 10212668
18:00+11сз79435 0.0 10221705
21:00+7ссз12500 0.0 102410
25 апреля, вс
вс2500:00+5ссв11525 0.0 102410
03:00+5ю2253100 0.0 102410
06:00+5юз345698 0.0 102263
09:00+9юз456141 0.0 1022820
12:00+13ююз554555 0.0 10211561
15:00+14юз564499 0.0 10192007
18:00+12ююз5653100 0.0 10181351
21:00+8ююз596397 0.0 1019239
26 апреля, пн
пн2600:00+7зюз2683100 1.9 1020382
03:00+6с6891100 5.6 1019489
06:00+5ссз2490100 0.0 1019179
09:00+8ссз347093 0.0 1020666
12:00+11ссз33415 0.0 10201593
15:00+13зсз353788 0.0 10192233
18:00+13з243775 0.0 10172064
21:00+9юз36605 0.0 101897
27 апреля, вт
вт2700:00+8ююз4869100 0.0 1017257
03:00+9ю61266100 0.0 1015497
06:00+9ююз81584100 0.1 1013701
09:00+9юз7127899 2.0 1014657
12:00+13з5764100 0.0 10141393
15:00+16зсз4542100 0.1 10131978
18:00+14ссз4451100 0.0 1014331
21:00+10в3465100 0.0 101570